TimePDT,TemperatureF,Dew PointF,Humidity,Sea Level PressureIn,VisibilityMPH,Wind Direction,Wind SpeedMPH,Gust SpeedMPH,PrecipitationIn,Events,Conditions,WindDirDegrees,DateUTC
12:06 AM,51.8,48.2,88,30.10,2.5,Calm,Calm,-,0.02,Rain,Light Rain,0,2013-06-12 07:06:00
12:11 AM,51.8,48.2,88,30.10,3.0,Calm,Calm,-,0.03,Rain,Light Rain,0,2013-06-12 07:11:00
12:21 AM,51.8,48.2,88,30.10,6.0,Calm,Calm,-,0.03,,Overcast,0,2013-06-12 07:21:00
12:36 AM,53.6,48.2,82,30.10,7.0,Calm,Calm,-,0.03,,Overcast,0,2013-06-12 07:36:00
12:44 AM,53.6,48.2,82,30.10,6.0,Calm,Calm,-,0.03,,Overcast,0,2013-06-12 07:44:00
12:53 AM,53.1,48.9,86,30.11,6.0,Calm,Calm,-,0.03,,Overcast,0,2013-06-12 07:53:00
1:35 AM,53.6,48.2,82,30.10,2.5,Calm,Calm,-,0.01,Rain,Light Rain,0,2013-06-12 08:35:00
1:53 AM,53.1,48.9,86,30.10,1.2,Calm,Calm,-,0.07,Rain,Heavy Rain,0,2013-06-12 08:53:00
2:04 AM,53.6,48.2,82,30.10,2.0,Calm,Calm,-,0.03,Rain,Light Rain,0,2013-06-12 09:04:00
2:12 AM,53.6,48.2,82,30.10,3.0,Calm,Calm,-,0.03,Rain,Light Rain,0,2013-06-12 09:12:00
2:48 AM,53.6,48.2,82,30.10,2.5,South,4.6,-,0.03,Rain,Light Rain,180,2013-06-12 09:48:00
2:53 AM,53.1,48.9,86,30.10,4.0,Calm,Calm,-,0.03,Rain,Light Rain,0,2013-06-12 09:53:00
3:20 AM,53.6,48.2,82,30.10,8.0,Calm,Calm,-,0.01,,Overcast,0,2013-06-12 10:20:00
3:46 AM,53.6,48.2,82,30.10,3.0,South,3.5,-,0.01,Rain,Light Rain,190,2013-06-12 10:46:00
3:51 AM,51.8,48.2,88,30.10,2.0,South,5.8,-,0.02,Rain,Light Rain,170,2013-06-12 10:51:00
3:53 AM,52.0,48.9,89,30.10,2.5,South,3.5,-,0.02,Rain,Light Rain,180,2013-06-12 10:53:00
4:00 AM,51.8,48.2,88,30.10,3.0,SSW,3.5,-,0.01,Rain,Light Rain,200,2013-06-12 11:00:00
4:15 AM,51.8,48.2,88,30.10,7.0,Calm,Calm,-,0.01,,Overcast,0,2013-06-12 11:15:00
4:51 AM,53.6,48.2,82,30.10,4.0,Calm,Calm,-,0.01,Rain,Light Rain,0,2013-06-12 11:51:00
4:53 AM,53.1,48.9,86,30.10,4.0,Calm,Calm,-,0.01,Rain,Light Rain,0,2013-06-12 11:53:00
5:03 AM,51.8,48.2,88,30.10,6.0,Calm,Calm,-,0.00,,Overcast,0,2013-06-12 12:03:00
5:25 AM,51.8,48.2,88,30.10,6.0,Calm,Calm,-,0.00,,Overcast,0,2013-06-12 12:25:00
5:40 AM,51.8,48.2,88,30.10,5.0,Calm,Calm,-,0.00,,Overcast,0,2013-06-12 12:40:00
5:53 AM,53.1,48.9,86,30.11,2.0,Variable,3.5,-,0.01,Rain,Light Rain,0,2013-06-12 12:53:00
5:57 AM,51.8,48.2,88,30.10,3.0,Calm,Calm,-,0.00,Rain,Light Rain,0,2013-06-12 12:57:00
6:13 AM,51.8,48.2,88,30.11,4.0,Calm,Calm,-,0.00,Rain,Light Rain,0,2013-06-12 13:13:00
6:24 AM,53.6,48.2,82,30.11,7.0,Variable,3.5,-,0.00,,Overcast,0,2013-06-12 13:24:00
6:36 AM,53.6,48.2,82,30.11,6.0,Calm,Calm,-,0.00,,Overcast,0,2013-06-12 13:36:00
6:44 AM,53.6,48.2,82,30.11,4.0,Calm,Calm,-,0.00,,Overcast,0,2013-06-12 13:44:00
6:53 AM,53.1,48.9,86,30.11,1.8,Calm,Calm,-,0.00,Rain,Light Rain,0,2013-06-12 13:53:00
7:00 AM,53.6,50.0,88,30.11,2.5,Calm,Calm,-,0.00,Rain,Light Rain,0,2013-06-12 14:00:00
7:06 AM,53.6,48.2,82,30.11,5.0,SE,3.5,-,0.00,,Overcast,140,2013-06-12 14:06:00
7:27 AM,53.6,50.0,88,30.11,6.0,SE,3.5,-,0.00,,Overcast,140,2013-06-12 14:27:00
7:34 AM,53.6,50.0,88,30.11,5.0,SE,4.6,-,0.00,,Overcast,140,2013-06-12 14:34:00
7:40 AM,53.6,50.0,88,30.11,2.5,SSE,4.6,-,0.00,Rain,Light Rain,150,2013-06-12 14:40:00
7:42 AM,53.6,50.0,88,30.11,1.5,SSE,4.6,-,0.01,Rain,Light Rain,150,2013-06-12 14:42:00
7:44 AM,53.6,50.0,88,30.11,1.2,Variable,5.8,-,0.01,Rain,Rain,0,2013-06-12 14:44:00
7:50 AM,53.6,48.2,82,30.11,1.8,Variable,4.6,-,0.02,Rain,Light Rain,0,2013-06-12 14:50:00
7:53 AM,53.1,50.0,89,30.12,3.0,Variable,3.5,-,0.02,Rain,Light Rain,0,2013-06-12 14:53:00
8:09 AM,53.6,50.0,88,30.11,4.0,South,3.5,-,0.01,Rain,Light Rain,190,2013-06-12 15:09:00
8:45 AM,53.6,50.0,88,30.12,3.0,SSW,4.6,-,0.02,Rain,Light Rain,200,2013-06-12 15:45:00
8:53 AM,54.0,50.0,86,30.12,4.0,Variable,3.5,-,0.02,Rain,Light Rain,0,2013-06-12 15:53:00
9:11 AM,53.6,50.0,88,30.12,4.0,South,3.5,-,0.01,Rain,Light Rain,170,2013-06-12 16:11:00
9:18 AM,53.6,50.0,88,30.12,3.0,Calm,Calm,-,0.01,Rain,Light Rain,0,2013-06-12 16:18:00
9:28 AM,53.6,50.0,88,30.12,4.0,Variable,3.5,-,0.01,Rain,Light Rain,0,2013-06-12 16:28:00
9:53 AM,55.0,51.1,86,30.13,4.0,South,3.5,-,0.01,Rain,Light Rain,180,2013-06-12 16:53:00
10:16 AM,55.4,50.0,82,30.13,5.0,Variable,4.6,-,0.01,Rain,Light Rain,0,2013-06-12 17:16:00
10:32 AM,55.4,51.8,88,30.13,5.0,Variable,4.6,-,0.01,Rain,Light Rain,0,2013-06-12 17:32:00
10:53 AM,54.0,50.0,86,30.13,2.5,South,6.9,-,0.01,Rain,Light Rain,190,2013-06-12 17:53:00
11:01 AM,53.6,48.2,82,30.13,1.5,South,6.9,-,0.01,Rain,Light Rain,180,2013-06-12 18:01:00
11:07 AM,53.6,50.0,88,30.13,3.0,Variable,5.8,-,0.01,Rain,Light Rain,0,2013-06-12 18:07:00
11:23 AM,55.4,50.0,82,30.13,8.0,South,5.8,-,0.01,,Overcast,190,2013-06-12 18:23:00
11:53 AM,55.0,51.1,86,30.14,5.0,South,6.9,-,0.01,Rain,Light Rain,170,2013-06-12 18:53:00
12:09 PM,55.4,51.8,88,30.13,6.0,South,8.1,-,0.00,Rain,Light Rain,190,2013-06-12 19:09:00
12:28 PM,55.4,51.8,88,30.13,8.0,SSW,3.5,-,0.00,,Overcast,200,2013-06-12 19:28:00
12:30 PM,55.4,51.8,88,30.14,8.0,SSW,4.6,-,0.00,,Overcast,210,2013-06-12 19:30:00
12:44 PM,55.4,51.8,88,30.14,7.0,South,8.1,-,0.00,,Overcast,180,2013-06-12 19:44:00
12:53 PM,55.9,50.0,80,30.14,8.0,Variable,6.9,-,0.00,Rain,Light Rain,0,2013-06-12 19:53:00
1:25 PM,57.2,51.8,82,30.14,7.0,South,8.1,-,0.00,Rain,Light Rain,190,2013-06-12 20:25:00
1:27 PM,57.2,50.0,77,30.14,7.0,Variable,6.9,-,0.00,Rain,Light Rain,0,2013-06-12 20:27:00
1:53 PM,55.9,50.0,80,30.15,8.0,South,6.9,-,0.00,Rain,Light Rain,190,2013-06-12 20:53:00
2:09 PM,55.4,50.0,82,30.15,7.0,SSE,5.8,-,0.00,Rain,Light Rain,160,2013-06-12 21:09:00
2:53 PM,55.9,50.0,80,30.15,7.0,South,8.1,-,0.00,Rain,Light Rain,190,2013-06-12 21:53:00
3:53 PM,55.9,50.0,80,30.15,8.0,South,5.8,-,0.02,,Overcast,190,2013-06-12 22:53:00
4:28 PM,57.2,50.0,77,30.15,9.0,South,6.9,-,N/A,,Overcast,190,2013-06-12 23:28:00
4:40 PM,57.2,50.0,77,30.15,9.0,SSW,8.1,-,N/A,,Overcast,200,2013-06-12 23:40:00
4:50 PM,57.2,50.0,77,30.15,8.0,SSW,5.8,-,N/A,,Overcast,200,2013-06-12 23:50:00
4:53 PM,57.0,51.1,81,30.15,8.0,SSW,8.1,-,N/A,,Overcast,210,2013-06-12 23:53:00
5:49 PM,55.4,50.0,82,30.14,8.0,South,4.6,-,N/A,,Overcast,190,2013-06-13 00:49:00
5:53 PM,55.9,50.0,80,30.14,8.0,Variable,5.8,-,N/A,,Overcast,0,2013-06-13 00:53:00
6:12 PM,55.4,51.8,88,30.14,6.0,South,4.6,-,0.00,Rain,Light Rain,180,2013-06-13 01:12:00
6:43 PM,55.4,51.8,88,30.14,8.0,South,3.5,-,0.00,Rain,Light Rain,170,2013-06-13 01:43:00
6:47 PM,55.4,51.8,88,30.14,8.0,South,4.6,-,0.00,,Overcast,190,2013-06-13 01:47:00
6:53 PM,55.9,51.1,84,30.14,7.0,Variable,4.6,-,0.00,Rain,Light Rain,0,2013-06-13 01:53:00
7:19 PM,55.4,50.0,82,30.14,8.0,South,4.6,-,0.00,,Overcast,180,2013-06-13 02:19:00
7:53 PM,57.0,50.0,77,30.14,8.0,Calm,Calm,-,0.00,,Overcast,0,2013-06-13 02:53:00
8:39 PM,55.4,50.0,82,30.14,8.0,South,4.6,-,N/A,,Overcast,190,2013-06-13 03:39:00
8:53 PM,55.0,50.0,83,30.14,8.0,Calm,Calm,-,N/A,,Overcast,0,2013-06-13 03:53:00
9:40 PM,53.6,50.0,88,30.14,8.0,Calm,Calm,-,N/A,,Overcast,0,2013-06-13 04:40:00
9:53 PM,54.0,48.9,83,30.14,8.0,Calm,Calm,-,N/A,,Mostly Cloudy,0,2013-06-13 04:53:00
10:01 PM,53.6,48.2,82,30.15,8.0,Calm,Calm,-,N/A,,Overcast,0,2013-06-13 05:01:00
10:36 PM,53.6,48.2,82,30.15,8.0,Calm,Calm,-,N/A,,Overcast,0,2013-06-13 05:36:00
10:53 PM,53.1,48.9,86,30.16,8.0,Calm,Calm,-,N/A,,Overcast,0,2013-06-13 05:53:00
11:44 PM,51.8,48.2,88,30.15,9.0,Calm,Calm,-,N/A,,Overcast,0,2013-06-13 06:44:00
11:53 PM,52.0,48.0,86,30.16,8.0,Calm,Calm,-,N/A,,Overcast,0,2013-06-13 06:53:00